User: anonymous   Login
Location: Albany
(35.0000°S, 118.0000°E)
Time: 01:32:35
(UTC-05:00)
Language:

Radarsat Rocket - Orbit

View from above orbital plane
View from above orbital plane
View from above satellite
View from above satellite

Ground track
Ground track

The orbit data is extracted from the following two-line orbital elements,

1 23711U 95059B   17324.57136441 -.00000079 +00000-0 -62591-4 0  9995
2 23711 100.5749 313.8173 0367809 325.3982 141.6632 13.12698115056138
Epoch (UTC): 20 November 2017 13:42:45
Eccentricity: 0.0367809
inclination: 100.5749°
perigee height: 933 km
apogee height: 1492 km
right ascension of ascending node: 313.8173°
argument of perigee: 325.3982°
revolutions per day: 13.12698115
mean anomaly at epoch: 141.6632°
orbit number at epoch: 5613

The dashed part of the orbit path shows where the satellite is in the earth's shadow,  

DLR